Location: Newark
(50.0306°N, 2.3272°E)
Time: 10:47:21
(UTC+00:00)

Transit 2A Rocket - Pass Details

Date: 15 December 2019
Orbit: 593 x 910 km, 66.7° (Epoch: 23 January)

Event Time Altitude Azimuth Distance (km) Brightness Sun altitude
Rises 23:02:11 0° 324° (NW) 2,865 - -61.9°
Reaches altitude 10° 23:04:24 10° 327° (NNW) 1,978 - -62.1°
Maximum altitude 23:08:50 71° 51° (NE) 679 - -62.3°
Drops below altitude 10° 23:13:33 10° 136° (SE) 2,109 - -62.5°
Sets 23:15:58 0° 139° (SE) 3,071 - -62.6°
